Weather Roundup
Issued by NWS

Home | Current Version | Previous Version | Graphics & Text | Print | Product List | Glossary Off
Versions: 1 2 3 4 5 6 7 8 9 10 11 12 13 14 15 16 17 18 19 20 21 22 23 24 25 26 27 28 29 30 31 32 33 34 35 36 37 38 39 40 41 42 43 44 45 46 47 48 49 50

808
NZUS93 KARX 181059
HRRWXR

CURRENT HOURLY OBSERVATIONS ACROSS
MUCH OF THE UPPER MISSISSIPPI VALLEY
NATIONAL WEATHER SERVICE LA CROSSE WI
500 AM CST SUN FEB 18 2018


...SOUTHEAST MINNESOTA...


CITY           SKY/WX    TMP DP  RH WIND       PRES   REMARKS
ROCHESTER      FAIR      15  14  95 SE8       30.05S WCI   4
ROCHESTER/MAYO PTSUNNY   17  16  95 SE8       30.07R WCI   6
WINONA         CLOUDY    16  14  93 CALM      30.11F
AUSTIN         FAIR      18  14  86 SE7       30.03F WCI   8
ALBERT LEA     MOCLDY    18  16  93 SE7       30.01F WCI   8
DODGE CENTER   MOCLDY    14  12  92 E10       30.02F WCI   1
PRESTON        FAIR      14  12  90 SE3       30.07R
OWATONNA       CLOUDY    19  16  86 E10       30.00F WCI   8
FARIBAULT      CLOUDY    18  14  86 E3        30.01F
$$

...ELSEWHERE IN MINNESOTA...


CITY           SKY/WX    TMP DP  RH WIND       PRES   REMARKS
MINNEAPOLIS    CLOUDY    21  11  65 E8        30.04F WCI  11
INTNL FALLS    FAIR      -6 -10  83 SE5       29.97F WCI -17
DULUTH         CLOUDY     9   2  73 CALM      29.99F
RED WING       CLOUDY    14   7  73 CALM      30.09R
REDWOOD FALLS  CLOUDY    20  16  84 SE14      29.91F WCI   7
MANKATO        MOCLDY    18  16  92 SE13      29.98F WCI   5
WORTHINGTON    CLOUDY    22  21  96 SE18      29.84F WCI   7
FAIRMONT       CLOUDY    19  17  92 SE14      29.97F WCI   6
$$

...SOUTHWEST WISCONSIN...


CITY           SKY/WX    TMP DP  RH WIND       PRES   REMARKS
LA CROSSE      MOCLDY    17  14  88 S7        30.14F WCI   8
PRAIRIE DU CHI FAIR      15  13  90 SE5       30.16F WCI   7
BOSCOBEL       FAIR       9   5  84 CALM      30.18F
LONE ROCK      MOCLDY    10   9  95 E3        30.20S FOG
PLATTEVILLE    CLOUDY    14  14  99 E3        30.18R VSB 1/4
FORT MC COY    FAIR       8   7  92 CALM      30.15F
CAMP DOUGLAS   FAIR      15  13  92 E3        30.15R
MAUSTON-NEW LI FAIR      15  12  90 CALM      30.16S
VIROQUA        FAIR      19  19 100 SE5       30.12F WCI  12
WIS DELLS      FAIR      18  16  90 S3        30.17S
$$

...ELSEWHERE IN WISCONSIN...


CITY           SKY/WX    TMP DP  RH WIND       PRES   REMARKS
MILWAUKEE      FAIR      23  20  88 W3        30.21R
MADISON        FAIR      16  13  88 CALM      30.21R FOG
GREEN BAY      FAIR      14  11  87 S3        30.16S
EAU CLAIRE     NOT AVBL
BLACK RVR FLS  FAIR       3  -2  81 CALM      30.12F
MEDFORD        FAIR       7   3  81 CALM      30.06F
WAUSAU         FAIR       8   6  92 CALM      30.10S
WIS RAPIDS     FAIR       9   5  84 CALM      30.16R
MARSHFIELD     FAIR       8   6  92 S3        30.10R
RICE LAKE      MOCLDY    11   6  80 SE5       30.09R WCI   3
$$

...NORTHEAST IOWA...


CITY           SKY/WX    TMP DP  RH WIND       PRES   REMARKS
WATERLOO       FAIR      10   8  92 SE6       30.10R FOG     WCI   0
DUBUQUE        FOG       12   8  84 CALM      30.15S VSB 1/4
DECORAH        FAIR      16  16 100 SE5       30.08F WCI   9
MASON CITY     CLOUDY    19  16  88 SE9       30.04F WCI   8
CHARLES CITY   CLOUDY    18  18 100 E9        30.06F WCI   6
OELWEIN        CLOUDY    14  14 100 SE8       30.10S FOG     WCI   3
$$

...ELSEWHERE IN IOWA...


CITY           SKY/WX    TMP DP  RH WIND       PRES   REMARKS
DES MOINES     CLEAR     28  23  81 SE9       30.08S WCI  19
IOWA CITY      FOG       18  14  84 SE3       30.17F VSB 1/2
FORT DODGE     CLOUDY    24  22  91 SE12      30.01F WCI  13
MARSHALLTOWN   CLOUDY    17  16  95 SE8       30.10R WCI   7
CEDAR RAPIDS   FAIR      15  10  80 SE5       30.12F HAZE    WCI   8
$$

...NORTHERN ILLINOIS...


CITY           SKY/WX    TMP DP  RH WIND       PRES   REMARKS
CHICAGO-OHARE  FAIR      16  14  92 S6        30.23S FOG     WCI   7
CHICAGO-MIDWAY FAIR      22  20  92 S3        30.25R
MOLINE         FAIR       9   8  96 E3        30.19S
ROCKFORD       FOG       14  12  92 S5        30.24R VSB 1/4 WCI   6
PEORIA         FAIR      19  16  88 CALM      30.24R FOG
$$

NOTE: "FAIR" INDICATES FEW OR NO CLOUDS BELOW 12,000 FEET WITH NO
SIGNIFICANT WEATHER AND/OR OBSTRUCTIONS TO VISIBILITY. WIND
SPEEDS ARE IN MILES-PER-HOUR.




USA.gov is the U.S. government's official web portal to all federal, state and local government web resources and services.